LHA646 WSSS-RPLL

Flight info

Callsign LHA646
Flight time N/A
Altitude 36000
Route TOMAN L625 LUSMO N884 LULBU/N0492F370 N884 LUBAN
Aircraft B77L/H-SDE1E2FGHIJ1J4M1RWXYZ/S

Departure

Time N/A
Airport Singapore Changi Airport (WSSS)

Arrival

Time 2026-05-05 19:00
Airport Ninoy Aquino International Airport (RPLL)
Time Latitude Longitude Altitude Speed Heading
2026-05-05 16:06 1.34137 104.87175 27232 ft 468 kts 88°
2026-05-05 16:07 1.34216 104.90462 27795 ft 472 kts 88°
2026-05-05 16:07 1.34293 104.93729 28339 ft 476 kts 89°
2026-05-05 16:07 1.34372 104.97021 28892 ft 480 kts 88°
2026-05-05 16:07 1.34453 105.00346 29462 ft 483 kts 89°
2026-05-05 16:08 1.34531 105.03700 30190 ft 483 kts 88°
2026-05-05 16:08 1.34611 105.07058 31023 ft 480 kts 89°
2026-05-05 16:08 1.34688 105.10357 31842 ft 476 kts 88°
2026-05-05 16:08 1.34764 105.13625 32575 ft 474 kts 88°
2026-05-05 16:09 1.34841 105.16898 33352 ft 473 kts 88°
2026-05-05 16:09 1.34918 105.20194 34161 ft 470 kts 89°
2026-05-05 16:09 1.34995 105.23427 34811 ft 470 kts 88°
2026-05-05 16:10 1.35150 105.29948 34862 ft 466 kts 88°
2026-05-05 16:10 1.35305 105.36471 34868 ft 467 kts 89°
2026-05-05 16:11 1.35460 105.43011 34866 ft 468 kts 89°
2026-05-05 16:12 1.35768 105.55976 34863 ft 466 kts 89°
2026-05-05 16:13 1.37018 105.72056 34867 ft 466 kts 72°
2026-05-05 16:13 1.39909 105.77853 34870 ft 469 kts 55°
2026-05-05 16:14 1.44440 105.82547 34868 ft 472 kts 38°
2026-05-05 16:14 1.50132 105.85901 34868 ft 474 kts 29°
2026-05-05 16:15 1.56043 105.88987 35776 ft 479 kts 29°
2026-05-05 16:15 1.61916 105.92039 35866 ft 470 kts 29°
2026-05-05 16:16 1.73546 105.98071 35855 ft 470 kts 28°
2026-05-05 16:17 1.82296 106.02601 35851 ft 470 kts 28°
2026-05-05 16:18 1.90998 106.07109 35849 ft 469 kts 28°
2026-05-05 16:19 1.99687 106.11602 35852 ft 468 kts 28°
2026-05-05 16:19 2.08409 106.16116 35863 ft 469 kts 28°
2026-05-05 16:20 2.20097 106.22156 35871 ft 469 kts 28°
2026-05-05 16:22 2.34604 106.29662 35872 ft 469 kts 28°
2026-05-05 16:23 2.46210 106.35674 35873 ft 469 kts 28°
2026-05-05 16:23 2.54915 106.40184 35873 ft 469 kts 28°
2026-05-05 16:24 2.60713 106.43187 35872 ft 467 kts 28°
2026-05-05 16:25 2.69382 106.47678 35866 ft 467 kts 28°
2026-05-05 16:25 2.78029 106.52158 35866 ft 467 kts 28°
2026-05-05 16:26 2.89608 106.58153 35865 ft 467 kts 28°
2026-05-05 16:27 2.95377 106.61138 35864 ft 465 kts 28°
2026-05-05 16:27 3.01175 106.64139 35865 ft 466 kts 28°
2026-05-05 16:28 3.06953 106.67129 35869 ft 467 kts 28°
2026-05-05 16:28 3.12712 106.70110 35870 ft 466 kts 28°
2026-05-05 16:29 3.18500 106.73106 35870 ft 467 kts 28°
2026-05-05 16:29 3.24276 106.76097 35870 ft 466 kts 28°
2026-05-05 16:30 3.30062 106.79093 35869 ft 467 kts 28°
2026-05-05 16:30 3.35839 106.82087 35869 ft 467 kts 28°
2026-05-05 16:31 3.41594 106.85068 35871 ft 466 kts 28°
2026-05-05 16:31 3.47384 106.88069 35868 ft 467 kts 28°
2026-05-05 16:32 3.53142 106.91091 35858 ft 466 kts 32°
2026-05-05 16:32 3.58135 106.95170 35861 ft 463 kts 50°
2026-05-05 16:33 3.62200 107.00118 35873 ft 463 kts 52°
2026-05-05 16:33 3.66265 107.05164 35873 ft 463 kts 52°
2026-05-05 16:34 3.70309 107.10184 35875 ft 462 kts 52°
2026-05-05 16:34 3.74336 107.15184 35872 ft 463 kts 52°
2026-05-05 16:35 3.78367 107.20188 35877 ft 463 kts 52°
2026-05-05 16:35 3.82397 107.25191 35882 ft 463 kts 52°
2026-05-05 16:36 3.86467 107.30246 35888 ft 463 kts 52°
2026-05-05 16:36 3.90499 107.35252 35887 ft 463 kts 52°
2026-05-05 16:37 3.94561 107.40298 35883 ft 463 kts 52°
2026-05-05 16:37 3.98597 107.45312 35872 ft 463 kts 52°
2026-05-05 16:38 4.02640 107.50337 35866 ft 463 kts 52°
2026-05-05 16:38 4.06664 107.55338 35864 ft 464 kts 52°
2026-05-05 16:39 4.10714 107.60371 35865 ft 463 kts 52°
2026-05-05 16:39 4.14764 107.65406 35866 ft 464 kts 52°
2026-05-05 16:40 4.18805 107.70432 35870 ft 464 kts 52°
2026-05-05 16:40 4.22855 107.75469 35867 ft 462 kts 52°
2026-05-05 16:41 4.26895 107.80493 35869 ft 463 kts 52°
2026-05-05 16:41 4.30929 107.85514 35868 ft 464 kts 52°
2026-05-05 16:42 4.34983 107.90558 35868 ft 463 kts 52°
2026-05-05 16:42 4.39023 107.95586 35867 ft 463 kts 52°
2026-05-05 16:43 4.43060 108.00612 35868 ft 462 kts 52°
2026-05-05 16:43 4.47097 108.05637 35865 ft 463 kts 51°
2026-05-05 16:44 4.51124 108.10651 35867 ft 462 kts 52°
2026-05-05 16:44 4.55152 108.15669 35866 ft 463 kts 52°
2026-05-05 16:45 4.59176 108.20683 35868 ft 462 kts 52°
2026-05-05 16:45 4.63216 108.25719 35866 ft 464 kts 52°
2026-05-05 16:46 4.67259 108.30758 35865 ft 463 kts 51°
2026-05-05 16:46 4.71297 108.35790 35865 ft 463 kts 52°
2026-05-05 16:47 4.75348 108.40820 35867 ft 462 kts 51°
2026-05-05 16:47 4.79423 108.45848 35865 ft 463 kts 51°
2026-05-05 16:48 4.83453 108.50822 35865 ft 463 kts 51°
2026-05-05 16:48 4.87529 108.55855 35866 ft 463 kts 51°
2026-05-05 16:49 4.91603 108.60886 35867 ft 464 kts 51°
2026-05-05 16:49 4.95668 108.65909 35867 ft 463 kts 52°
2026-05-05 16:50 4.99729 108.70927 35869 ft 464 kts 52°
2026-05-05 16:50 5.03800 108.75958 35872 ft 464 kts 51°
2026-05-05 16:51 5.07860 108.80978 35874 ft 464 kts 51°
2026-05-05 16:51 5.11940 108.86025 35881 ft 464 kts 52°
2026-05-05 16:52 5.16006 108.91054 35887 ft 464 kts 52°
2026-05-05 16:52 5.20058 108.96069 35889 ft 464 kts 52°
2026-05-05 16:53 5.24121 109.01096 35888 ft 464 kts 52°
2026-05-05 16:53 5.28192 109.06136 35887 ft 465 kts 52°
2026-05-05 16:54 5.32271 109.11187 35888 ft 464 kts 51°
2026-05-05 16:54 5.36324 109.16206 35888 ft 464 kts 51°
2026-05-05 16:55 5.40393 109.21245 35884 ft 464 kts 51°
2026-05-05 16:55 5.44464 109.26289 35873 ft 464 kts 51°
2026-05-05 16:56 5.48533 109.31331 35868 ft 464 kts 51°
2026-05-05 16:56 5.52579 109.36346 35866 ft 464 kts 51°
2026-05-05 16:57 5.56649 109.41393 35866 ft 464 kts 51°
2026-05-05 16:57 5.60719 109.46440 35866 ft 465 kts 51°
2026-05-05 16:58 5.64782 109.51479 35867 ft 465 kts 51°
2026-05-05 16:58 5.68845 109.56521 35865 ft 464 kts 51°
2026-05-05 16:59 5.72903 109.61557 35865 ft 464 kts 51°
2026-05-05 16:59 5.76955 109.66587 35870 ft 465 kts 51°
2026-05-05 17:00 5.81029 109.71645 35868 ft 464 kts 51°
2026-05-05 17:00 5.85098 109.76697 35868 ft 465 kts 51°
2026-05-05 17:01 5.89163 109.81747 35868 ft 464 kts 51°
2026-05-05 17:01 5.93198 109.86762 35868 ft 464 kts 51°
2026-05-05 17:02 5.97250 109.91798 35867 ft 463 kts 51°
2026-05-05 17:02 6.01318 109.96858 35867 ft 465 kts 51°
2026-05-05 17:03 6.05390 110.01920 35867 ft 464 kts 51°
2026-05-05 17:03 6.09454 110.06976 35867 ft 466 kts 51°
2026-05-05 17:04 6.13517 110.12032 35869 ft 464 kts 51°
2026-05-05 17:04 6.17569 110.17075 35867 ft 463 kts 51°
2026-05-05 17:05 6.21634 110.22137 35869 ft 465 kts 51°
2026-05-05 17:05 6.25707 110.27208 35871 ft 464 kts 51°
2026-05-05 17:06 6.29751 110.32246 35875 ft 465 kts 52°
2026-05-05 17:06 6.33824 110.37322 35873 ft 465 kts 51°
2026-05-05 17:07 6.37878 110.42374 35875 ft 465 kts 51°
2026-05-05 17:07 6.41916 110.47409 35875 ft 464 kts 51°
2026-05-05 17:08 6.45976 110.52470 35879 ft 465 kts 51°
2026-05-05 17:08 6.50052 110.57555 35884 ft 465 kts 51°
2026-05-05 17:09 6.54124 110.62635 35886 ft 465 kts 52°
2026-05-05 17:09 6.58176 110.67693 35890 ft 465 kts 52°
2026-05-05 17:10 6.62245 110.72774 35891 ft 466 kts 52°
2026-05-05 17:10 6.66300 110.77837 35889 ft 466 kts 51°
2026-05-05 17:11 6.70343 110.82889 35889 ft 466 kts 52°
2026-05-05 17:11 6.74402 110.87960 35889 ft 465 kts 52°
2026-05-05 17:12 6.78455 110.93025 35885 ft 465 kts 52°
2026-05-05 17:12 6.82528 110.98117 35878 ft 465 kts 52°
2026-05-05 17:13 6.86568 111.03169 35871 ft 464 kts 51°
2026-05-05 17:13 6.90619 111.08238 35869 ft 464 kts 51°
2026-05-05 17:14 6.94665 111.13301 35867 ft 466 kts 51°
2026-05-05 17:14 6.98659 111.18301 35866 ft 464 kts 51°
2026-05-05 17:15 7.02714 111.23380 35867 ft 464 kts 51°
2026-05-05 17:15 7.06764 111.28452 35866 ft 464 kts 51°
2026-05-05 17:16 7.10794 111.33499 35868 ft 464 kts 51°
2026-05-05 17:16 7.14863 111.38599 35867 ft 464 kts 51°
2026-05-05 17:17 7.18898 111.43659 35866 ft 466 kts 51°
2026-05-05 17:17 7.22954 111.48748 35866 ft 465 kts 51°
2026-05-05 17:18 7.27020 111.53848 35866 ft 465 kts 51°
2026-05-05 17:18 7.31060 111.58946 35867 ft 465 kts 52°
2026-05-05 17:19 7.35102 111.64060 35867 ft 466 kts 52°
2026-05-05 17:19 7.39136 111.69166 35873 ft 466 kts 52°
2026-05-05 17:20 7.43151 111.74249 35874 ft 465 kts 52°
2026-05-05 17:20 7.47180 111.79349 35876 ft 466 kts 51°
2026-05-05 17:21 7.51220 111.84467 35879 ft 465 kts 52°
2026-05-05 17:22 7.57282 111.92147 35883 ft 467 kts 52°
2026-05-05 17:22 7.61305 111.97246 35886 ft 466 kts 51°
2026-05-05 17:23 7.65337 112.02358 35889 ft 466 kts 51°
2026-05-05 17:23 7.69369 112.07472 35889 ft 466 kts 51°
2026-05-05 17:24 7.73403 112.12592 35890 ft 466 kts 52°
2026-05-05 17:24 7.77424 112.17695 35889 ft 467 kts 52°
2026-05-05 17:25 7.81487 112.22855 35888 ft 467 kts 52°
2026-05-05 17:25 7.85536 112.27997 35888 ft 467 kts 51°
2026-05-05 17:26 7.89564 112.33115 35887 ft 467 kts 52°
2026-05-05 17:26 7.93617 112.38268 35887 ft 467 kts 51°
2026-05-05 17:27 7.97654 112.43400 35888 ft 467 kts 51°
2026-05-05 17:27 8.01676 112.48515 35886 ft 467 kts 51°
2026-05-05 17:28 8.05738 112.53684 35886 ft 468 kts 51°
2026-05-05 17:28 8.09765 112.58810 35887 ft 468 kts 51°
2026-05-05 17:29 8.13822 112.63977 35888 ft 468 kts 51°
2026-05-05 17:29 8.17861 112.69122 35889 ft 468 kts 52°
2026-05-05 17:30 8.21886 112.74249 35890 ft 468 kts 52°
2026-05-05 17:30 8.25932 112.79406 35884 ft 468 kts 52°
2026-05-05 17:31 8.29991 112.84583 35875 ft 469 kts 52°
2026-05-05 17:31 8.34015 112.89716 35871 ft 468 kts 52°
2026-05-05 17:32 8.38067 112.94886 35868 ft 469 kts 52°
2026-05-05 17:32 8.42114 113.00053 35868 ft 469 kts 52°
2026-05-05 17:33 8.46149 113.05205 35865 ft 468 kts 52°
2026-05-05 17:33 8.50185 113.10364 35866 ft 468 kts 52°
2026-05-05 17:34 8.54222 113.15522 35866 ft 468 kts 52°
2026-05-05 17:34 8.58258 113.20682 35867 ft 468 kts 52°
2026-05-05 17:35 8.62276 113.25822 35867 ft 468 kts 52°
2026-05-05 17:35 8.66325 113.31002 35866 ft 468 kts 52°
2026-05-05 17:36 8.70340 113.36141 35866 ft 468 kts 52°
2026-05-05 17:36 8.74393 113.41331 35870 ft 467 kts 52°
2026-05-05 17:37 8.78420 113.46489 35875 ft 469 kts 52°
2026-05-05 17:37 8.82454 113.51659 35876 ft 467 kts 52°
2026-05-05 17:38 8.86456 113.56789 35883 ft 467 kts 52°
2026-05-05 17:38 8.90484 113.61955 35884 ft 469 kts 52°
2026-05-05 17:39 8.94534 113.67151 35888 ft 469 kts 52°
2026-05-05 17:39 8.98563 113.72323 35889 ft 468 kts 52°
2026-05-05 17:40 9.02598 113.77504 35890 ft 468 kts 52°
2026-05-05 17:40 9.06625 113.82676 35889 ft 469 kts 52°
2026-05-05 17:41 9.10680 113.87887 35889 ft 470 kts 52°
2026-05-05 17:41 9.14706 113.93063 35890 ft 468 kts 52°
2026-05-05 17:42 9.18760 113.98278 35890 ft 469 kts 52°
2026-05-05 17:42 9.22801 114.03477 35888 ft 470 kts 52°
2026-05-05 17:43 9.26836 114.08672 35890 ft 470 kts 52°
2026-05-05 17:43 9.30880 114.13879 35890 ft 470 kts 52°
2026-05-05 17:44 9.34930 114.19096 35889 ft 470 kts 52°
2026-05-05 17:44 9.38969 114.24302 35887 ft 470 kts 52°
2026-05-05 17:45 9.43011 114.29514 35888 ft 470 kts 52°
2026-05-05 17:45 9.47054 114.34728 35887 ft 470 kts 52°
2026-05-05 17:46 9.51099 114.39947 35888 ft 472 kts 52°
2026-05-05 17:46 9.55146 114.45173 35886 ft 470 kts 52°
2026-05-05 17:47 9.59168 114.50367 35884 ft 471 kts 52°
2026-05-05 17:47 9.63207 114.55586 35883 ft 471 kts 52°
2026-05-05 17:48 9.67268 114.60836 35885 ft 472 kts 52°
2026-05-05 17:48 9.71298 114.66047 35883 ft 472 kts 52°
2026-05-05 17:49 9.75344 114.71281 35880 ft 473 kts 52°
2026-05-05 17:49 9.79388 114.76516 35874 ft 472 kts 52°
2026-05-05 17:50 9.83438 114.81760 35870 ft 473 kts 52°
2026-05-05 17:50 9.87534 114.87036 35876 ft 474 kts 52°
2026-05-05 17:51 9.91602 114.92278 35886 ft 474 kts 52°
2026-05-05 17:51 9.95691 114.97550 35885 ft 474 kts 52°
2026-05-05 17:52 9.99790 115.02837 35886 ft 473 kts 52°
2026-05-05 17:52 10.03867 115.08100 35889 ft 474 kts 52°
2026-05-05 17:53 10.07921 115.13335 35889 ft 474 kts 52°
2026-05-05 17:53 10.12008 115.18615 35891 ft 473 kts 52°
2026-05-05 17:54 10.16073 115.23868 35889 ft 473 kts 52°
2026-05-05 17:54 10.20135 115.29121 35889 ft 473 kts 52°
2026-05-05 17:55 10.24201 115.34382 35891 ft 473 kts 52°
2026-05-05 17:55 10.28240 115.39610 35891 ft 473 kts 51°
2026-05-05 17:56 10.32336 115.44913 35889 ft 474 kts 51°
2026-05-05 17:56 10.36407 115.50187 35889 ft 473 kts 51°
2026-05-05 17:57 10.40440 115.55414 35890 ft 473 kts 51°
2026-05-05 17:57 10.44507 115.60688 35888 ft 473 kts 51°
2026-05-05 17:58 10.48570 115.65959 35889 ft 474 kts 52°
2026-05-05 17:58 10.52635 115.71234 35888 ft 474 kts 51°
2026-05-05 17:59 10.56696 115.76509 35888 ft 475 kts 51°
2026-05-05 17:59 10.60782 115.81812 35890 ft 474 kts 51°
2026-05-05 18:00 10.64824 115.87068 35889 ft 473 kts 51°
2026-05-05 18:00 10.68894 115.92360 35890 ft 474 kts 51°
2026-05-05 18:01 10.72963 115.97656 35889 ft 473 kts 51°
2026-05-05 18:01 10.77000 116.02912 35889 ft 474 kts 51°
2026-05-05 18:02 10.81071 116.08214 35888 ft 474 kts 51°
2026-05-05 18:02 10.85117 116.13486 35888 ft 475 kts 51°
2026-05-05 18:03 10.89190 116.18797 35888 ft 474 kts 51°
2026-05-05 18:03 10.93260 116.24105 35888 ft 474 kts 51°
2026-05-05 18:04 10.97311 116.29391 35888 ft 475 kts 51°
2026-05-05 18:04 11.01384 116.34709 35888 ft 475 kts 51°
2026-05-05 18:05 11.05432 116.39996 35887 ft 476 kts 51°
2026-05-05 18:05 11.09497 116.45308 35889 ft 476 kts 51°
2026-05-05 18:06 11.13556 116.50616 35891 ft 475 kts 51°
2026-05-05 18:06 11.17628 116.55943 35891 ft 475 kts 51°
2026-05-05 18:07 11.21665 116.61226 35895 ft 475 kts 51°
2026-05-05 18:07 11.25723 116.66537 35903 ft 475 kts 52°
2026-05-05 18:08 11.29772 116.71841 35910 ft 475 kts 52°
2026-05-05 18:08 11.33829 116.77159 35910 ft 475 kts 51°
2026-05-05 18:09 11.37873 116.82461 35909 ft 475 kts 51°
2026-05-05 18:09 11.41928 116.87780 35908 ft 475 kts 51°
2026-05-05 18:10 11.45988 116.93105 35909 ft 475 kts 51°
2026-05-05 18:10 11.50041 116.98425 35904 ft 475 kts 51°
2026-05-05 18:11 11.54075 117.03724 35901 ft 476 kts 51°
2026-05-05 18:11 11.58135 117.09065 35901 ft 476 kts 51°
2026-05-05 18:12 11.62205 117.14414 35904 ft 477 kts 51°
2026-05-05 18:12 11.66266 117.19759 35902 ft 476 kts 51°
2026-05-05 18:13 11.70311 117.25088 35901 ft 476 kts 52°
2026-05-05 18:13 11.74362 117.30428 35903 ft 477 kts 51°
2026-05-05 18:14 11.78431 117.35795 35907 ft 478 kts 51°
2026-05-05 18:14 11.82510 117.41175 35902 ft 479 kts 51°
2026-05-05 18:15 11.86589 117.46559 35899 ft 479 kts 51°
2026-05-05 18:15 11.90663 117.51940 35897 ft 479 kts 51°
2026-05-05 18:16 11.94713 117.57290 35898 ft 478 kts 51°
2026-05-05 18:16 11.98806 117.62700 35892 ft 478 kts 51°
2026-05-05 18:17 12.02880 117.68086 35889 ft 478 kts 51°
2026-05-05 18:17 12.06949 117.73471 35888 ft 479 kts 52°
2026-05-05 18:18 12.11024 117.78866 35888 ft 479 kts 52°
2026-05-05 18:18 12.15082 117.84244 35890 ft 479 kts 51°
2026-05-05 18:19 12.19192 117.89691 35890 ft 480 kts 51°
2026-05-05 18:19 12.23259 117.95084 35890 ft 480 kts 51°
2026-05-05 18:20 12.27345 118.00507 35887 ft 480 kts 51°
2026-05-05 18:20 12.31402 118.05894 35886 ft 480 kts 52°
2026-05-05 18:21 12.35474 118.11306 35889 ft 481 kts 51°
2026-05-05 18:21 12.39565 118.16740 35889 ft 481 kts 51°
2026-05-05 18:22 12.43644 118.22163 35889 ft 481 kts 51°
2026-05-05 18:22 12.47716 118.27582 35888 ft 481 kts 51°
2026-05-05 18:23 12.51793 118.33009 35889 ft 482 kts 51°
2026-05-05 18:23 12.55875 118.38449 35898 ft 482 kts 51°
2026-05-05 18:24 12.59973 118.43909 35904 ft 483 kts 51°
2026-05-05 18:24 12.64078 118.49386 35906 ft 482 kts 51°
2026-05-05 18:25 12.68136 118.54803 35910 ft 482 kts 51°
2026-05-05 18:25 12.72227 118.60269 35909 ft 483 kts 51°
2026-05-05 18:26 12.76317 118.65732 35910 ft 483 kts 51°
2026-05-05 18:26 12.80413 118.71210 35907 ft 483 kts 51°
2026-05-05 18:27 12.84498 118.76673 35908 ft 484 kts 51°
2026-05-05 18:27 12.88600 118.82167 35900 ft 483 kts 52°
2026-05-05 18:28 12.94729 118.90376 35893 ft 484 kts 51°
2026-05-05 18:28 12.98813 118.95850 35890 ft 483 kts 51°
2026-05-05 18:29 13.02884 119.01306 35891 ft 484 kts 51°
2026-05-05 18:29 13.07029 119.06769 35889 ft 484 kts 51°
2026-05-05 18:30 13.11173 119.12225 35893 ft 484 kts 51°
2026-05-05 18:30 13.15338 119.17715 35891 ft 485 kts 51°
2026-05-05 18:31 13.19462 119.23158 35893 ft 484 kts 51°
2026-05-05 18:31 13.23582 119.28599 35894 ft 484 kts 51°
2026-05-05 18:32 13.27726 119.34075 35895 ft 484 kts 51°
2026-05-05 18:32 13.31890 119.39584 35895 ft 484 kts 51°
2026-05-05 18:33 13.36034 119.45067 35894 ft 484 kts 51°
2026-05-05 18:33 13.40141 119.50505 35895 ft 485 kts 51°
2026-05-05 18:34 13.44261 119.55965 35895 ft 485 kts 51°
2026-05-05 18:34 13.48372 119.61417 35550 ft 479 kts 51°
2026-05-05 18:35 13.50405 119.64113 34665 ft 481 kts 51°
2026-05-05 18:35 13.52491 119.66879 33839 ft 482 kts 52°
2026-05-05 18:35 13.54577 119.69651 33080 ft 482 kts 51°
2026-05-05 18:35 13.56606 119.72343 32350 ft 481 kts 52°
2026-05-05 18:36 13.58672 119.75090 31593 ft 482 kts 52°
2026-05-05 18:36 13.60734 119.77831 30789 ft 484 kts 52°
2026-05-05 18:36 13.62782 119.80553 30246 ft 479 kts 52°
2026-05-05 18:36 13.64799 119.83230 29802 ft 472 kts 52°
2026-05-05 18:37 13.66810 119.85905 29316 ft 467 kts 52°
2026-05-05 18:37 13.68774 119.88515 28811 ft 462 kts 52°
2026-05-05 18:37 13.70715 119.91099 28314 ft 457 kts 52°
2026-05-05 18:37 13.72673 119.93704 27801 ft 453 kts 52°
2026-05-05 18:38 13.74586 119.96254 27297 ft 458 kts 53°
2026-05-05 18:38 13.76540 119.98859 26770 ft 466 kts 53°
2026-05-05 18:38 13.78536 120.01521 26212 ft 464 kts 53°
2026-05-05 18:38 13.80493 120.04128 25675 ft 459 kts 52°
2026-05-05 18:39 13.82435 120.06714 25133 ft 455 kts 53°
2026-05-05 18:39 13.84352 120.09272 24588 ft 452 kts 52°
2026-05-05 18:39 13.86265 120.11833 24037 ft 447 kts 53°
2026-05-05 18:39 13.88110 120.14399 23492 ft 444 kts 53°
2026-05-05 18:40 13.89913 120.16917 22953 ft 440 kts 54°
2026-05-05 18:40 13.91709 120.19428 22415 ft 436 kts 53°
2026-05-05 18:40 13.93515 120.21947 21878 ft 432 kts 53°
2026-05-05 18:40 13.95274 120.24403 21342 ft 429 kts 53°
2026-05-05 18:41 13.97053 120.26883 20791 ft 425 kts 53°
2026-05-05 18:41 13.98791 120.29311 20242 ft 422 kts 53°
2026-05-05 18:41 14.00515 120.31714 19707 ft 418 kts 54°
2026-05-05 18:41 14.02241 120.34125 19181 ft 415 kts 54°
2026-05-05 18:42 14.03947 120.36505 18628 ft 412 kts 54°
2026-05-05 18:42 14.05638 120.38868 18088 ft 409 kts 54°
2026-05-05 18:42 14.07308 120.41200 17553 ft 405 kts 54°
2026-05-05 18:42 14.08966 120.43514 17021 ft 402 kts 54°
2026-05-05 18:43 14.10621 120.45827 16499 ft 398 kts 54°
2026-05-05 18:43 14.12258 120.48114 15971 ft 394 kts 54°
2026-05-05 18:43 14.13883 120.50386 15424 ft 391 kts 54°
2026-05-05 18:43 14.15482 120.52621 14927 ft 387 kts 54°
2026-05-05 18:44 14.17061 120.54833 14410 ft 384 kts 54°
2026-05-05 18:44 14.18640 120.57040 13899 ft 381 kts 54°
2026-05-05 18:44 14.20207 120.59237 13368 ft 378 kts 54°
2026-05-05 18:44 14.21754 120.61400 12834 ft 375 kts 54°
2026-05-05 18:45 14.23321 120.63593 12099 ft 378 kts 54°
2026-05-05 18:45 14.24867 120.65756 11489 ft 377 kts 55°
2026-05-05 18:45 14.26412 120.67922 10989 ft 373 kts 54°
2026-05-05 18:45 14.27941 120.70061 10637 ft 364 kts 55°
2026-05-05 18:46 14.29409 120.72120 10594 ft 348 kts 55°
2026-05-05 18:46 14.30804 120.74075 10523 ft 332 kts 55°
2026-05-05 18:46 14.32138 120.75952 10427 ft 319 kts 55°
2026-05-05 18:46 14.33408 120.77734 10321 ft 306 kts 56°
2026-05-05 18:47 14.34640 120.79464 10202 ft 295 kts 55°
2026-05-05 18:47 14.35845 120.81154 10088 ft 284 kts 55°
2026-05-05 18:47 14.37000 120.82777 9941 ft 275 kts 55°
2026-05-05 18:47 14.38132 120.84362 9613 ft 274 kts 55°
2026-05-05 18:48 14.39250 120.85936 9256 ft 274 kts 56°
2026-05-05 18:48 14.40381 120.87521 8912 ft 273 kts 55°
2026-05-05 18:48 14.41506 120.89105 8594 ft 272 kts 56°
2026-05-05 18:48 14.42630 120.90681 8270 ft 271 kts 55°
2026-05-05 18:49 14.43743 120.92247 7930 ft 270 kts 55°
2026-05-05 18:49 14.44853 120.93803 7613 ft 268 kts 55°
2026-05-05 18:49 14.45954 120.95353 7298 ft 268 kts 55°
2026-05-05 18:49 14.47050 120.96892 6973 ft 266 kts 55°
2026-05-05 18:50 14.48153 120.98444 6651 ft 265 kts 56°
2026-05-05 18:50 14.49435 120.99805 6331 ft 267 kts 33°
2026-05-05 18:50 14.51141 121.00416 6064 ft 269 kts
2026-05-05 18:50 14.52954 121.00102 5993 ft 263 kts 336°
2026-05-05 18:51 14.54386 120.98941 6009 ft 272 kts 308°
2026-05-05 18:51 14.55168 120.97146 6001 ft 282 kts 278°
2026-05-05 18:51 14.55003 120.95151 5997 ft 281 kts 247°
2026-05-05 18:51 14.53907 120.93499 5990 ft 278 kts 216°
2026-05-05 18:52 14.52211 120.92606 6012 ft 272 kts 194°
2026-05-05 18:52 14.50387 120.92061 6012 ft 271 kts 192°
2026-05-05 18:52 14.48567 120.91541 6010 ft 269 kts 192°
2026-05-05 18:52 14.46742 120.91022 6008 ft 269 kts 192°
2026-05-05 18:53 14.45068 120.90273 5954 ft 261 kts 214°
2026-05-05 18:53 14.43814 120.88972 5936 ft 249 kts 230°
2026-05-05 18:53 14.42836 120.87516 5807 ft 243 kts 234°
2026-05-05 18:53 14.41974 120.86043 5566 ft 242 kts 238°
2026-05-05 18:54 14.41143 120.84535 5361 ft 237 kts 240°
2026-05-05 18:54 14.40717 120.82945 5239 ft 227 kts 272°
2026-05-05 18:54 14.41139 120.81471 5131 ft 211 kts 306°
2026-05-05 18:54 14.42215 120.80467 4719 ft 209 kts 339°
2026-05-05 18:55 14.43594 120.80214 4308 ft 201 kts 11°
2026-05-05 18:55 14.44853 120.80714 3977 ft 190 kts 40°
2026-05-05 18:55 14.45658 120.81741 3736 ft 179 kts 68°
2026-05-05 18:55 14.45883 120.82955 3519 ft 171 kts 93°
2026-05-05 18:56 14.45644 120.84129 3351 ft 167 kts 103°
2026-05-05 18:56 14.45341 120.85297 3155 ft 168 kts 103°
2026-05-05 18:56 14.45045 120.86444 2934 ft 163 kts 102°
2026-05-05 18:56 14.44751 120.87582 2713 ft 167 kts 103°
2026-05-05 18:57 14.44455 120.88745 2501 ft 165 kts 99°
2026-05-05 18:57 14.44374 120.89922 2282 ft 166 kts 90°
2026-05-05 18:57 14.44677 120.91027 2053 ft 157 kts 61°
2026-05-05 18:57 14.45252 120.91921 1852 ft 146 kts 62°
2026-05-05 18:58 14.45753 120.92828 1664 ft 141 kts 63°
2026-05-05 18:58 14.46243 120.93703 1479 ft 141 kts 62°
2026-05-05 18:58 14.46729 120.94573 1295 ft 140 kts 62°
2026-05-05 18:58 14.47216 120.95437 1118 ft 142 kts 61°
2026-05-05 18:59 14.47745 120.96333 814 ft 149 kts 58°
2026-05-05 18:59 14.48311 120.97193 505 ft 142 kts 58°
2026-05-05 18:59 14.48801 120.98082 426 ft 144 kts 65°
2026-05-05 18:59 14.49259 120.98991 310 ft 144 kts 59°
2026-05-05 19:00 14.49739 120.99897 167 ft 142 kts 63°
2026-05-05 19:00 14.50227 121.00794 89 ft 134 kts 59°
2026-05-05 19:00 14.50606 121.01492 88 ft 90 kts 60°
2026-05-05 19:00 14.50805 121.01851 88 ft 42 kts 60°
2026-05-05 19:01 14.50921 121.02058 88 ft 23 kts 60°
2026-05-05 19:01 14.51013 121.02185 88 ft 21 kts 43°
2026-05-05 19:01 14.51116 121.02281 88 ft 17 kts 43°
2026-05-05 19:01 14.51181 121.02280 88 ft 9 kts 292°
2026-05-05 19:02 14.51166 121.02217 88 ft 9 kts 244°
2026-05-05 19:02 14.51130 121.02150 88 ft 11 kts 240°
2026-05-05 19:02 14.51086 121.02071 88 ft 13 kts 240°
2026-05-05 19:02 14.51080 121.01977 88 ft 14 kts 291°
2026-05-05 19:03 14.51059 121.01875 88 ft 15 kts 241°
2026-05-05 19:03 14.51001 121.01772 88 ft 17 kts 239°
2026-05-05 19:03 14.50943 121.01661 88 ft 17 kts 255°
2026-05-05 19:03 14.50998 121.01555 88 ft 9 kts 309°
2026-05-05 19:04 14.51007 121.01479 88 ft 11 kts 255°
2026-05-05 19:04 14.50998 121.01449 88 ft 0 kts 251°